DW0805 Weather Reports


time (UTC)temp
C
wind
direction
speed
KPH
gust
KPH
rain 1hr
cm
rain 24hr
cm
rain mn
cm
humidity
%
barometer
mb
20260510075512 11 198 3.2 9.7 0.00 0.00 0.00 83 1014.2
20260510073512 11 151 4.8 9.7 0.00 0.00 0.00 84 1014.3
20260510072512 11 179 4.8 9.7 0.00 0.00 0.00 84 1014.4
20260510070513 10 159 4.8 11.3 0.00 0.00 0.00 84 1014.6
20260510065512 10 165 4.8 12.9 0.00 0.00 0.00 83 1014.7
20260510063513 10 152 6.4 11.3 0.00 0.00 0.00 84 1014.7
20260510062512 10 147 3.2 11.3 0.00 0.00 0.00 85 1014.8
20260510061512 10 169 3.2 11.3 0.00 0.00 0.00 85 1014.9
20260510060512 9 166 1.6 9.7 0.00 0.00 0.00 85 1015.0
20260510055512 9 186 4.8 11.3 0.00 0.00 0.00 86 1015.0
20260510054513 9 156 3.2 8.0 0.00 0.00 0.00 86 1015.0
20260510052512 8 155 4.8 9.7 0.00 0.00 0.00 87 1015.0
20260510051512 8 142 3.2 9.7 0.00 0.00 0.00 87 1015.3
20260510050512 8 137 1.6 8.0 0.00 0.00 0.00 87 1015.4
20260510045512 8 135 3.2 8.0 0.00 0.00 0.00 86 1015.4
20260510042512 7 130 3.2 9.7 0.00 0.00 0.00 87 1015.6
20260510035513 7 109 6.4 11.3 0.00 0.00 0.00 88 1016.0
20260510033512 7 111 6.4 9.7 0.00 0.00 0.00 88 1016.1
20260510031512 6 103 3.2 9.7 0.00 0.00 0.00 89 1016.2
20260510030512 6 106 3.2 9.7 0.00 0.00 0.00 90 1016.2
20260510024513 6 105 1.6 3.2 0.00 0.00 0.00 89 1016.5
20260510022513 6 106 8.0 9.7 0.00 0.00 0.00 88 1016.8
20260510021513 6 121 6.4 9.7 0.00 0.00 0.00 88 1016.9
20260510015512 6 78 0.0 9.7 0.00 0.00 0.00 85 1016.9
20260510014514 6 86 4.8 9.7 0.00 0.00 0.00 85 1016.9
20260510013513 6 98 4.8 8.0 0.00 0.00 0.00 84 1017.1
20260510011512 6 113 4.8 9.7 0.00 0.00 0.00 83 1017.3
20260510004513 6 105 3.2 8.0 0.00 0.00 0.00 82 1017.7
20260510001513 7 105 6.4 9.7 0.00 0.00 0.00 79 1018.4
20260509235512 7 109 4.8 9.7 0.00 0.00 0.00 80 1018.4
20260509233513 6 107 4.8 9.7 0.00 0.00 0.00 81 1018.7
20260509230513 7 105 8.0 9.7 0.00 0.00 0.00 80 1019.0
20260509225512 7 101 8.0 11.3 0.00 0.00 0.00 80 1019.1
20260509222513 8 138 3.2 9.7 0.00 0.00 0.00 79 1019.3
20260509221509 8 161 3.2 9.7 0.00 0.00 0.00 78 1019.3
20260509215513 8 177 1.6 8.0 0.00 0.00 0.00 77 1019.3
20260509213513 9 172 1.6 8.0 0.00 0.00 0.00 76 1019.4
20260509212512 9 186 1.6 8.0 0.00 0.00 0.00 74 1019.4
20260509210513 9 179 4.8 9.7 0.00 0.00 0.00 74 1019.6
20260509203512 10 195 4.8 12.9 0.00 0.00 0.00 73 1019.7
20260509195513 11 171 6.4 14.5 0.00 0.00 0.00 65 1019.7
20260509194513 11 166 8.0 16.1 0.00 0.00 0.00 63 1019.6
20260509183513 13 148 4.8 11.3 0.00 0.00 0.00 52 1019.2
20260509182514 13 166 8.0 16.1 0.00 0.00 0.00 50 1019.3
20260509175513 15 152 8.0 14.5 0.00 0.00 0.00 48 1019.3
20260509174513 15 159 8.0 16.1 0.00 0.00 0.00 45 1019.3
20260509173513 16 175 9.7 20.9 0.00 0.00 0.00 46 1019.3
20260509165513 17 162 6.4 19.3 0.00 0.00 0.00 44 1019.5
20260509163513 17 195 4.8 14.5 0.00 0.00 0.00 44 1019.4
20260509162514 17 190 9.7 19.3 0.00 0.00 0.00 43 1019.5
20260509161513 16 184 6.4 14.5 0.00 0.00 0.00 46 1019.6
20260509154513 16 353 3.2 11.3 0.00 0.00 0.00 48 1020.0
20260509153514 16 79 3.2 12.9 0.00 0.00 0.00 46 1020.1
20260509152513 17 11 1.6 9.7 0.00 0.00 0.00 42 1020.1
20260509151513 17 312 3.2 9.7 0.00 0.00 0.00 43 1020.3
20260509145512 17 18 8.0 14.5 0.00 0.00 0.00 43 1020.4
20260509143513 17 340 3.2 12.9 0.00 0.00 0.00 42 1020.5
20260509140512 17 17 3.2 12.9 0.00 0.00 0.00 43 1020.8
20260509135513 17 354 4.8 14.5 0.00 0.00 0.00 42 1021.0
20260509134513 17 287 9.7 22.5 0.00 0.00 0.00 44 1021.1
20260509133513 18 311 9.7 22.5 0.00 0.00 0.00 43 1021.1
20260509130514 16 148 4.8 12.9 0.00 0.00 0.00 41 1021.5
20260509125514 16 70 8.0 14.5 0.00 0.00 0.00 42 1021.7
20260509123512 17 120 8.0 12.9 0.00 0.00 0.00 31 1021.9
20260509121513 18 152 4.8 12.9 0.00 0.00 0.00 38 1022.2
20260509113512 17 184 3.2 11.3 0.00 0.00 0.00 37 1022.7
20260509112513 17 245 6.4 12.9 0.00 0.00 0.00 37 1022.7
20260509110513 17 199 3.2 9.7 0.00 0.00 0.00 37 1022.8
20260509105514 17 192 6.4 9.7 0.00 0.00 0.00 36 1022.9
20260509104513 17 213 6.4 11.3 0.00 0.00 0.00 35 1023.0
20260509103513 17 179 8.0 12.9 0.00 0.00 0.00 34 1023.0
20260509101513 17 180 6.4 11.3 0.00 0.00 0.00 37 1023.0
20260509100513 16 200 4.8 16.1 0.00 0.00 0.00 35 1023.0
20260509095513 16 118 8.0 12.9 0.00 0.00 0.00 35 1023.0
20260509092513 16 122 8.0 19.3 0.00 0.00 0.00 30 1023.1
20260509090514 15 96 12.9 24.1 0.00 0.00 0.00 25 1023.2
20260509083513 15 49 12.9 24.1 0.00 0.00 0.00 28 1023.3
20260509082512 15 56 12.9 19.3 0.00 0.00 0.00 28 1023.4